Location: Nairn
(57.5833°N, 3.8667°W)
Time: 02:42:58
(UTC+00:00)

Tiros 1 despin weight - Pass Details

Date: 26 November 2020
Orbit: 594 x 641 km, 48.2° (Epoch: 22 January)

Event Time Altitude Azimuth Distance (km) Brightness Sun altitude
Rises 18:46:30 0° 265° (W) 2,940 ? -23.5°
Reaches altitude 10° 18:50:13 10° 235° (SW) 2,021 ? -24.0°
Maximum altitude 18:52:00 12° 212° (SSW) 1,879 ? -24.2°
Drops below altitude 10° 18:53:46 10° 190° (S) 2,009 ? -24.5°
Enters shadow 18:55:10 - 175° (S) 2,274 ? -24.7°
